Location: Marstown
(39.5056°N, 77.0820°W)
Time: 00:52:38
(UTC-04:00)

Amateur Radio Satellites - All Passes

Search period start: 23 July 2017 00:22
Search period end: 24 July 2017 00:22
Location: Marstown, 39.5056°N, 77.0820°W

Satellite Date Start Highest point End Downlink Frequencies (MHz)
Time Altitude Azimuth
POLYITAN 1 23 Jul 00:25:53 00:29:35 29° 97° (E) 00:33:14 437.675
50 SAT 23 Jul 00:26:41 00:28:40 15° 68° (ENE) 00:30:40 437.505
DUCHIFAT 1 23 Jul 00:27:37 00:31:02 24° 95° (E) 00:34:25 145.980
ISS 23 Jul 00:28:08 00:29:44 13° 346° (NNW) 00:31:21 437.550
SPROUT 23 Jul 00:29:13 00:33:25 57° 74° (ENE) 00:37:39 437.525
LO-87 23 Jul 00:33:09 00:35:09 14° 267° (W) 00:37:10 145.935 - 145.965
QB50P2 23 Jul 00:38:29 00:42:33 45° 99° (E) 00:46:34 145.880/145.840
FO-29 23 Jul 00:48:12 00:52:08 16° 306° (NW) 00:55:53 435.910
EO-79 23 Jul 00:51:25 00:55:35 59° 101° (E) 00:59:43 145.935-145.965
NANOSAT C BR1 23 Jul 00:53:12 00:57:20 55° 100° (E) 01:01:25 145.865
VELOX 1 23 Jul 00:54:13 00:58:38 86° 259° (W) 01:03:05 145.980
RS-15 23 Jul 00:56:41 01:08:31 52° 47° (NE) 01:19:42 29.354- 29.394
BUGSAT 1 23 Jul 01:07:18 01:10:11 18° 94° (E) 01:13:03 437.445
DX 1 23 Jul 01:08:27 01:12:31 40° 71° (ENE) 01:16:37 434.975-435.025
nSIGHT-1 23 Jul 01:14:51 01:14:56 10° 355° (N) 01:15:02 .
AIST 2D 23 Jul 01:18:01 01:20:39 20° 290° (WNW) 01:23:15 435.315
M-CUBED/EXP-1 PRIME 23 Jul 01:31:58 01:32:58 11° 303° (WNW) 01:33:59 437.505
O/OREOS (USA 219) 23 Jul 01:50:39 01:55:01 49° 65° (ENE) 01:59:22 437.305
JUGNU 23 Jul 01:51:08 01:51:51 10° 176° (S) 01:52:32 437.505
UKube-1 23 Jul 01:56:08 02:00:27 87° 255° (WSW) 02:04:48 .
50 SAT 23 Jul 01:58:13 02:01:09 27° 263° (W) 02:04:06 437.505
POLYITAN 1 23 Jul 02:01:57 02:05:11 22° 292° (WNW) 02:08:24 437.675
DUCHIFAT 1 23 Jul 02:03:09 02:06:37 26° 291° (WNW) 02:10:05 145.980
ISS 23 Jul 02:06:43 02:07:22 10° 6° (N) 02:08:01 437.550
SPROUT 23 Jul 02:08:09 02:09:39 12° 269° (W) 02:11:09 437.525
QB50P2 23 Jul 02:15:33 02:17:55 15° 295° (WNW) 02:20:19 145.880/145.840
MOZHAYETS 4 23 Jul 02:20:09 02:21:44 12° 62° (ENE) 02:23:20
Oscar 19 23 Jul 02:28:55 02:34:01 59° 101° (E) 02:39:07 437.125/150
EO-79 23 Jul 02:29:15 02:30:49 12° 297° (WNW) 02:32:22 145.935-145.965
NANOSAT C BR1 23 Jul 02:30:45 02:32:32 13° 296° (WNW) 02:34:19 145.865
BEESAT 23 Jul 02:31:52 02:35:37 23° 66° (ENE) 02:39:22 436.000
Gurwin Techsat 1B 23 Jul 02:34:50 02:39:52 42° 99° (E) 02:44:53 435.225
BUGSAT 1 23 Jul 02:41:57 02:45:36 32° 290° (WNW) 02:49:13 437.445
ITUPSAT 1 23 Jul 02:42:56 02:47:03 29° 68° (ENE) 02:51:11 437.325
DX 1 23 Jul 02:46:03 02:48:51 17° 267° (W) 02:51:41 434.975-435.025
nSIGHT-1 23 Jul 02:50:45 02:52:29 14° 16° (NNE) 02:54:13 .
Tancredo 1 23 Jul 03:04:05 03:06:34 24° 28° (NNE) 03:09:03 437.200
RS-15 23 Jul 03:09:40 03:20:54 49° 251° (WSW) 03:31:35 29.354- 29.394
O/OREOS (USA 219) 23 Jul 03:31:31 03:33:58 15° 261° (W) 03:36:24 437.305
ISS 23 Jul 03:42:02 03:44:46 24° 26° (NNE) 03:47:29 437.550
AO-7 23 Jul 03:42:28 03:49:29 29° 96° (E) 03:56:25 .
MOZHAYETS 4 23 Jul 03:53:42 03:58:17 71° 258° (WSW) 04:02:52
BEESAT 23 Jul 04:08:48 04:13:10 36° 262° (W) 04:17:34 436.000
Oscar 19 23 Jul 04:09:34 04:12:51 17° 297° (WNW) 04:16:07 437.125/150
ITAMSAT 1 23 Jul 04:15:07 04:20:04 42° 99° (E) 04:24:58 435.822/435.867
Gurwin Techsat 1B 23 Jul 04:15:21 04:19:32 24° 295° (WNW) 04:23:43 435.225
ITUPSAT 1 23 Jul 04:20:42 04:24:48 28° 264° (W) 04:28:55 437.325
CUBESAT XI-V 23 Jul 04:21:57 04:26:15 42° 72° (ENE) 04:30:35 437.345
nSIGHT-1 23 Jul 04:26:17 04:29:27 53° 34° (NE) 04:32:38 .
Tancredo 1 23 Jul 04:39:18 04:42:02 34° 224° (SW) 04:44:45 437.200
YUBILEINY 23 Jul 04:48:26 04:52:45 14° 60° (ENE) 04:57:01 435.215
KKS-1 23 Jul 04:52:35 04:56:54 51° 73° (ENE) 05:01:16 437.445
ISS 23 Jul 05:18:14 05:21:22 44° 223° (SW) 05:24:29 437.550
STARS 23 Jul 05:29:11 05:33:29 53° 73° (ENE) 05:37:50 437.465
AO-7 23 Jul 05:34:27 05:42:38 61° 294° (WNW) 05:50:46 .
PCSat 23 Jul 05:35:22 05:40:29 46° 112° (ESE) 05:45:40 145.827
DOVE 4 23 Jul 05:50:31 05:54:54 26° 93° (E) 05:59:11 437.250
ITAMSAT 1 23 Jul 05:55:13 05:59:14 23° 295° (WNW) 06:03:15 435.822/435.867
CUBESAT XI-V 23 Jul 06:00:43 06:03:47 18° 267° (W) 06:06:53 437.345
nSIGHT-1 23 Jul 06:03:39 06:05:33 15° 230° (SW) 06:07:27 .
STRAND 1 23 Jul 06:15:52 06:17:53 12° 60° (ENE) 06:19:54 437.568
XW-2F 23 Jul 06:22:41 06:24:51 15° 93° (E) 06:27:00 145.980 - 146.000
KKS-1 23 Jul 06:31:25 06:33:44 14° 268° (W) 06:36:05 437.445
YUBILEINY 23 Jul 06:42:24 06:51:12 75° 81° (E) 06:59:54 435.215
XW-2D 23 Jul 06:48:37 06:52:04 34° 97° (E) 06:55:31 145.860 - 145.880
XW-2B 23 Jul 06:58:29 07:02:06 44° 99° (E) 07:05:42 145.730 - 145.750
STARS 23 Jul 07:07:59 07:10:07 13° 268° (W) 07:12:15 437.465
XW-2C 23 Jul 07:15:35 07:19:21 78° 101° (E) 07:23:07 145.795 - 145.815
HO-68 23 Jul 07:15:36 07:20:36 20° 92° (E) 07:25:34 435.675
PCSat 23 Jul 07:19:33 07:24:04 26° 310° (NW) 07:28:38 145.827
CUTE-I 23 Jul 07:24:51 07:30:13 69° 102° (ESE) 07:35:31 437.470
SO-50 23 Jul 07:26:06 07:30:38 85° 123° (ESE) 07:35:11 436.795
DOVE 4 23 Jul 07:27:47 07:32:36 37° 290° (WNW) 07:37:17 437.250
AO-7 23 Jul 07:30:05 07:33:41 14° 314° (NW) 07:37:17 .
NUDT-PHONESAT 23 Jul 07:32:45 07:36:26 86° 282° (WNW) 07:40:06 437.300
LilacSat-2 23 Jul 07:36:20 07:40:01 52° 286° (WNW) 07:43:42 437.200
KAITUO 1B 23 Jul 07:43:43 07:47:22 59° 285° (WNW) 07:51:02 145.475/437.950
STRAND 1 23 Jul 07:51:09 07:56:19 84° 256° (WSW) 08:01:30 437.568
XW-2A 23 Jul 07:54:18 07:56:22 15° 94° (E) 07:58:25 145.665 - 145.685
XW-2F 23 Jul 07:55:41 07:59:04 33° 288° (WNW) 08:02:26 145.980 - 146.000
CUTE 1.7 + AOD 2 23 Jul 08:20:06 08:24:20 66° 101° (E) 08:28:33 437.475
XW-2D 23 Jul 08:23:45 08:25:58 15° 293° (WNW) 08:28:10 145.860 - 145.880
XW-2B 23 Jul 08:34:21 08:35:52 12° 294° (WNW) 08:37:24 145.730 - 145.750
SEEDS 23 Jul 08:36:45 08:40:56 63° 100° (E) 08:45:07 437.485
UWE-3 23 Jul 08:39:15 08:42:55 29° 96° (E) 08:46:31 435.000/436.395/437.385
YUBILEINY 23 Jul 08:40:53 08:46:59 22° 280° (W) 08:53:05 435.215
UNISAT 6 23 Jul 08:54:34 08:55:59 11° 62° (ENE) 08:57:24 437.425
ZACube-1 23 Jul 08:58:13 09:01:41 25° 95° (E) 09:05:08 437.345
HO-68 23 Jul 09:01:46 09:08:54 72° 289° (WNW) 09:16:00 435.675
CUTE-I 23 Jul 09:06:31 09:09:38 16° 299° (WNW) 09:12:44 437.470
SO-50 23 Jul 09:09:24 09:11:42 14° 319° (NW) 09:14:01 436.795
FO-29 23 Jul 09:10:03 09:17:06 45° 67° (ENE) 09:24:28 435.910
CUBEBUG 2 23 Jul 09:12:29 09:16:44 63° 285° (WNW) 09:20:50 437.445
XW-2A 23 Jul 09:26:21 09:29:05 24° 289° (WNW) 09:31:49 145.665 - 145.685
AAUSAT CUBESAT 2 23 Jul 09:27:07 09:31:17 74° 283° (WNW) 09:35:26 437.432
Oscar 11 23 Jul 09:28:01 09:32:04 38° 98° (E) 09:36:05 .
PRISM 23 Jul 09:30:30 09:33:32 20° 67° (ENE) 09:36:35 437.425
TIGRISAT 23 Jul 09:36:34 09:40:32 28° 69° (ENE) 09:44:28 435.000
AO-73 23 Jul 09:39:17 09:43:26 71° 101° (ESE) 09:47:31 145.935
CUTE 1.7 + AOD 2 23 Jul 09:58:29 09:59:36 11° 297° (WNW) 10:00:43 437.475
SEEDS 23 Jul 10:14:48 10:16:04 11° 296° (WNW) 10:17:20 437.485
EO-88 23 Jul 10:15:18 10:17:49 18° 94° (E) 10:20:20 145.990 - 145.960
UWE-3 23 Jul 10:16:00 10:19:12 21° 292° (WNW) 10:22:21 435.000/436.395/437.385
UNISAT 6 23 Jul 10:27:23 10:32:04 76° 258° (WSW) 10:36:41 437.425
ZACube-1 23 Jul 10:34:32 10:37:52 24° 291° (WNW) 10:41:10 437.345
M-CUBED/EXP-1 PRIME 23 Jul 10:39:54 10:43:26 85° 252° (WSW) 10:47:17 437.505
DELFI C3 23 Jul 10:49:17 10:53:19 85° 103° (ESE) 10:57:18 145.870
HO-68 23 Jul 10:52:12 10:55:23 14° 308° (NW) 10:58:33 435.675
FO-29 23 Jul 10:55:11 11:02:04 39° 265° (W) 11:09:20 435.910
Oscar 11 23 Jul 11:04:59 11:07:53 18° 293° (WNW) 11:10:47 .
PRISM 23 Jul 11:05:00 11:08:36 30° 263° (W) 11:12:14 437.425
TIGRISAT 23 Jul 11:13:10 11:17:08 27° 264° (W) 11:21:04 435.000
POLYITAN 1 23 Jul 11:17:48 11:20:59 21° 67° (ENE) 11:24:10 437.675
DUCHIFAT 1 23 Jul 11:19:00 11:21:46 17° 66° (ENE) 11:24:30 145.980
QB50P2 23 Jul 11:30:02 11:33:47 30° 70° (ENE) 11:37:32 145.880/145.840
EO-79 23 Jul 11:42:36 11:46:33 38° 72° (ENE) 11:50:31 145.935-145.965
NANOSAT C BR1 23 Jul 11:44:06 11:47:58 35° 71° (ENE) 11:51:52 145.865
EO-88 23 Jul 11:48:25 11:51:28 26° 289° (WNW) 11:54:31 145.990 - 145.960
AIST 2D 23 Jul 11:50:15 11:53:42 68° 259° (W) 11:57:10 435.315
ESTCUBE 1 23 Jul 11:50:56 11:54:32 23° 95° (E) 11:58:07 437.505/2401.250
BUGSAT 1 23 Jul 11:57:00 11:58:58 13° 64° (ENE) 12:00:56 437.445
LO-87 23 Jul 11:59:06 12:02:36 45° 99° (E) 12:06:02 145.935 - 145.965
NO-84 23 Jul 12:23:13 12:26:15 68° 318° (NW) 12:29:32 435.350 FM
VELOX 1 23 Jul 12:45:56 12:49:08 19° 94° (E) 12:52:19 145.980
POLYITAN 1 23 Jul 12:52:41 12:56:32 32° 263° (W) 13:00:24 437.675
DUCHIFAT 1 23 Jul 12:53:06 12:57:05 40° 261° (W) 13:01:06 145.980
AO-85 23 Jul 12:59:41 13:03:15 30° 115° (ESE) 13:06:42 145.980
QB50P2 23 Jul 13:06:17 13:09:34 21° 265° (W) 13:12:52 145.880/145.840
EO-79 23 Jul 13:19:38 13:22:26 17° 267° (W) 13:25:15 145.935-145.965
NANOSAT C BR1 23 Jul 13:20:49 13:23:46 18° 266° (W) 13:26:43 145.865
50 SAT 23 Jul 13:21:24 13:23:37 16° 94° (E) 13:25:49 437.505
BEESAT 3 23 Jul 13:22:22 13:26:14 53° 118° (ESE) 13:30:10 437.485
ESTCUBE 1 23 Jul 13:27:20 13:31:20 32° 290° (WNW) 13:35:20 437.505/2401.250
BUGSAT 1 23 Jul 13:29:41 13:33:50 55° 260° (W) 13:38:00 437.445
LO-87 23 Jul 13:34:39 13:35:35 11° 295° (WNW) 13:36:31 145.935 - 145.965
Oscar 19 23 Jul 13:44:46 13:49:52 78° 75° (ENE) 13:55:00 437.125/150
UKube-1 23 Jul 13:45:10 13:47:53 16° 93° (E) 13:50:35 .
SPROUT 23 Jul 13:51:22 13:55:36 64° 285° (WNW) 13:59:48 437.525
Gurwin Techsat 1B 23 Jul 13:54:51 14:00:05 62° 73° (ENE) 14:05:20 435.225
BEESAT 2 23 Jul 13:57:42 14:01:27 41° 116° (ESE) 14:05:16 435.950
NO-84 23 Jul 14:02:55 14:04:21 12° 339° (NNW) 14:05:50 435.350 FM
VELOX 1 23 Jul 14:21:33 14:25:40 37° 289° (WNW) 14:29:46 145.980
PCSat 23 Jul 14:24:08 14:28:58 31° 52° (NE) 14:33:45 145.827
DX 1 23 Jul 14:33:04 14:37:29 88° 101° (E) 14:41:52 434.975-435.025
AO-7 23 Jul 14:40:20 14:47:50 39° 61° (ENE) 14:55:22 .
AO-85 23 Jul 14:40:27 14:43:37 22° 311° (NW) 14:46:46 145.980
50 SAT 23 Jul 14:53:28 14:56:20 25° 289° (WNW) 14:59:11 437.505
BEESAT 3 23 Jul 15:01:36 15:04:07 16° 315° (NW) 15:06:40 437.485
RS-15 23 Jul 15:19:22 15:29:36 34° 104° (ESE) 15:39:59 29.354- 29.394
UKube-1 23 Jul 15:19:59 15:24:04 41° 289° (WNW) 15:28:08 .
Oscar 19 23 Jul 15:28:14 15:29:44 11° 271° (W) 15:31:13 437.125/150
ITAMSAT 1 23 Jul 15:31:58 15:37:06 61° 73° (ENE) 15:42:16 435.822/435.867
BEESAT 2 23 Jul 15:36:29 15:39:23 19° 313° (NW) 15:42:18 435.950
Gurwin Techsat 1B 23 Jul 15:37:18 15:40:25 16° 269° (W) 15:43:33 435.225
MOZHAYETS 4 23 Jul 15:49:55 15:53:49 27° 96° (E) 15:57:43
SO-50 23 Jul 15:58:08 16:02:37 57° 55° (NE) 16:07:07 436.795
O/OREOS (USA 219) 23 Jul 16:01:45 16:06:13 70° 110° (ESE) 16:10:41 437.305
PCSat 23 Jul 16:07:26 16:12:22 36° 250° (WSW) 16:17:16 145.827
BEESAT 23 Jul 16:09:11 16:13:54 60° 101° (ESE) 16:18:34 436.000
ITUPSAT 1 23 Jul 16:21:05 16:25:52 79° 102° (ESE) 16:30:37 437.325
CUBESAT XI-V 23 Jul 16:21:32 16:22:55 11° 90° (E) 16:24:16 437.345
AO-7 23 Jul 16:32:23 16:40:22 49° 259° (W) 16:48:26 .
KKS-1 23 Jul 16:47:29 16:48:02 10° 90° (E) 16:48:36 437.445
DOVE 4 23 Jul 16:54:57 16:58:43 23° 66° (ENE) 17:02:40 437.250
CUTE-I 23 Jul 17:09:11 17:11:43 14° 60° (ENE) 17:14:15 437.470
ITAMSAT 1 23 Jul 17:13:53 17:16:56 16° 268° (W) 17:20:01 435.822/435.867
NO-84 23 Jul 17:20:35 17:22:20 13° 22° (NNE) 17:24:06 435.350 FM
MOZHAYETS 4 23 Jul 17:27:04 17:30:53 27° 291° (WNW) 17:34:41
RS-15 23 Jul 17:28:57 17:41:08 72° 305° (NW) 17:53:33 29.354- 29.394
XW-2D 23 Jul 17:29:58 17:32:12 15° 67° (ENE) 17:34:27 145.860 - 145.880
XW-2B 23 Jul 17:39:27 17:42:09 19° 69° (ENE) 17:44:51 145.730 - 145.750
SO-50 23 Jul 17:40:03 17:42:36 15° 251° (WSW) 17:45:09 436.795
O/OREOS (USA 219) 23 Jul 17:44:15 17:46:07 12° 307° (NW) 17:48:00 437.305
HO-68 23 Jul 17:45:28 17:49:11 15° 54° (NE) 17:52:55 435.675
BEESAT 23 Jul 17:48:33 17:51:08 15° 297° (WNW) 17:53:43 436.000
YUBILEINY 23 Jul 17:49:56 17:54:50 16° 77° (ENE) 17:59:44 435.215
XW-2C 23 Jul 17:55:59 17:59:18 30° 72° (ENE) 18:02:37 145.795 - 145.815
CUBESAT XI-V 23 Jul 17:56:03 18:00:42 68° 285° (WNW) 18:05:21 437.345
ITUPSAT 1 23 Jul 18:01:28 18:03:00 11° 299° (WNW) 18:04:33 437.325
NUDT-PHONESAT 23 Jul 18:10:56 18:14:17 33° 72° (ENE) 18:17:37 437.300
LilacSat-2 23 Jul 18:16:47 18:20:30 61° 76° (ENE) 18:24:14 437.200
KKS-1 23 Jul 18:20:34 18:25:02 69° 286° (WNW) 18:29:27 437.445
KAITUO 1B 23 Jul 18:22:23 18:25:57 49° 75° (ENE) 18:29:32 145.475/437.950
DOVE 4 23 Jul 18:31:37 18:36:06 39° 264° (W) 18:40:51 437.250
XW-2F 23 Jul 18:34:50 18:38:34 86° 262° (W) 18:42:19 145.980 - 146.000
CUTE-I 23 Jul 18:45:39 18:51:01 81° 256° (WSW) 18:56:26 437.470
STARS 23 Jul 18:55:24 18:59:48 69° 285° (WNW) 19:04:08 437.465
NO-84 23 Jul 18:56:42 19:00:31 50° 40° (NE) 19:04:36 435.350 FM
XW-2D 23 Jul 19:02:41 19:06:06 33° 263° (W) 19:09:31 145.860 - 145.880
CUTE 1.7 + AOD 2 23 Jul 19:11:40 19:15:34 39° 73° (ENE) 19:19:30 437.475
XW-2B 23 Jul 19:12:58 19:16:09 26° 264° (W) 19:19:21 145.730 - 145.750
SEEDS 23 Jul 19:27:21 19:31:09 36° 72° (ENE) 19:34:59 437.485
HO-68 23 Jul 19:28:36 19:35:46 78° 72° (ENE) 19:42:58 435.675
XW-2C 23 Jul 19:31:09 19:33:32 16° 267° (W) 19:35:55 145.795 - 145.815
UWE-3 23 Jul 19:35:08 19:38:46 24° 69° (ENE) 19:42:21 435.000/436.395/437.385
YUBILEINY 23 Jul 19:41:25 19:50:16 88° 96° (E) 19:59:09 435.215
NUDT-PHONESAT 23 Jul 19:46:18 19:48:16 14° 267° (W) 19:50:15 437.300
RS-15 23 Jul 19:46:22 19:56:22 27° 333° (NNW) 20:06:23 29.354- 29.394
ZACube-1 23 Jul 19:53:13 19:56:27 20° 68° (ENE) 19:59:40 437.345
XW-2A 23 Jul 19:55:39 19:59:03 85° 76° (ENE) 20:02:26 145.665 - 145.685
STRAND 1 23 Jul 20:02:52 20:07:33 35° 97° (E) 20:12:12 437.568
CUBEBUG 2 23 Jul 20:08:32 20:13:16 89° 260° (W) 20:17:56 437.445
AAUSAT CUBESAT 2 23 Jul 20:15:49 20:19:50 60° 75° (ENE) 20:23:54 437.432
Oscar 11 23 Jul 20:22:00 20:25:37 27° 69° (ENE) 20:29:13 .
AO-73 23 Jul 20:33:16 20:37:32 48° 74° (ENE) 20:41:44 145.935
NO-84 23 Jul 20:34:45 20:37:50 21° 234° (SW) 20:41:01 435.350 FM
CUTE 1.7 + AOD 2 23 Jul 20:48:59 20:51:33 16° 268° (W) 20:54:08 437.475
SEEDS 23 Jul 21:04:17 21:06:58 17° 267° (W) 21:09:39 437.485
nSIGHT-1 23 Jul 21:05:03 21:07:47 25° 133° (SE) 21:10:30 .
Tancredo 1 23 Jul 21:06:59 21:09:54 81° 143° (SE) 21:12:51 437.200
UWE-3 23 Jul 21:10:55 21:15:01 32° 263° (W) 21:19:05 435.000/436.395/437.385
HO-68 23 Jul 21:19:32 21:24:09 18° 269° (W) 21:28:48 435.675
ZACube-1 23 Jul 21:28:22 21:32:29 36° 262° (W) 21:36:33 437.345
AO-85 23 Jul 21:30:54 21:34:18 23° 49° (NE) 21:37:53 145.980
DELFI C3 23 Jul 21:33:31 21:37:10 39° 73° (ENE) 21:40:52 145.870
BEESAT 3 23 Jul 21:40:14 21:43:33 24° 49° (NE) 21:46:49 437.485
STRAND 1 23 Jul 21:42:21 21:46:33 26° 294° (WNW) 21:50:44 437.568
YUBILEINY 23 Jul 21:42:23 21:48:15 19° 296° (WNW) 21:54:10 435.215
ISS 23 Jul 21:57:04 22:00:18 89° 323° (NW) 22:03:33 437.550
Oscar 11 23 Jul 21:58:08 22:01:40 25° 265° (W) 22:05:13 .
RS-15 23 Jul 22:06:18 22:14:54 21° 9° (N) 22:23:19 29.354- 29.394
FO-29 23 Jul 22:06:34 22:13:11 39° 95° (E) 22:19:02 435.910
AO-73 23 Jul 22:11:32 22:13:58 14° 268° (W) 22:16:23 145.935
BEESAT 2 23 Jul 22:16:25 22:19:34 21° 48° (NE) 22:22:40 435.950
UNISAT 6 23 Jul 22:20:46 22:24:11 23° 94° (E) 22:27:34 437.425
EO-88 23 Jul 22:24:15 22:27:52 74° 259° (WSW) 22:31:31 145.990 - 145.960
LO-87 23 Jul 22:35:01 22:37:23 17° 68° (ENE) 22:39:46 145.935 - 145.965
nSIGHT-1 23 Jul 22:41:07 22:44:05 33° 330° (NNW) 22:47:04 .
Tancredo 1 23 Jul 22:43:46 22:45:39 15° 339° (NNW) 22:47:31 437.200
PRISM 23 Jul 22:46:36 22:50:28 36° 98° (E) 22:54:18 437.425
ESTCUBE 1 23 Jul 22:49:58 22:53:08 20° 66° (ENE) 22:56:20 437.505/2401.250
TIGRISAT 23 Jul 23:04:50 23:09:08 67° 100° (E) 23:13:22 435.000
DELFI C3 23 Jul 23:10:01 23:12:06 14° 268° (W) 23:14:11 145.870
AO-85 23 Jul 23:10:49 23:14:45 36° 244° (WSW) 23:18:57 145.980
BEESAT 3 23 Jul 23:17:38 23:21:07 29° 246° (WSW) 23:24:31 437.485
ISS 23 Jul 23:34:57 23:37:10 17° 340° (NNW) 23:39:23 437.550
VELOX 1 23 Jul 23:42:50 23:45:31 16° 64° (ENE) 23:48:13 145.980
FO-29 23 Jul 23:51:37 23:58:05 37° 295° (WNW) 00:03:53 435.910
M-CUBED/EXP-1 PRIME 23 Jul 23:52:28 23:57:06 83° 107° (ESE) 00:01:46 437.505
BEESAT 2 23 Jul 23:53:41 23:57:25 36° 245° (WSW) 00:01:06 435.950
UNISAT 6 23 Jul 23:57:09 00:00:54 29° 290° (WNW) 00:04:34 437.425
LO-87 24 Jul 00:07:25 00:10:34 28° 263° (W) 00:13:46 145.935 - 145.965
nSIGHT-1 24 Jul 00:20:06 00:21:15 11° 349° (N) 00:22:25 .
